This demonstration page uses our WeatherBlox Daily Observations layout. Learn more.

Left ArrowRight Arrow

Hourly Observations for May 26, 2015

Temp ( °F °C ) Dew Point ( °F °C ) Humidity (%) Winds ( mph kmh ) Pressure ( in mb ) Visibility ( mi km ) Precip ( " mm )
12:15 am 00:15 Clear 72 22 61 16 69 69 S 6 9 30.21 1023 10 16 N/A
12:35 am 00:35 Clear 70 21 61 16 73 73 S 5 7 30.21 1023 10 16 N/A
12:55 am 00:55 Clear 70 21 61 16 73 73 N N/A 30.21 1023 10 16 N/A
1:15 am 01:15 Clear 70 21 61 16 73 73 S 3 6 30.21 1023 10 16 N/A
1:35 am 01:35 Clear 70 21 61 16 73 73 S 7 11 30.21 1023 10 16 N/A
1:55 am 01:55 Clear 68 20 59 15 73 73 S 8 13 30.21 1023 10 16 N/A
2:15 am 02:15 Clear 68 20 59 15 73 73 S 5 7 30.21 1023 10 16 N/A
2:35 am 02:35 Clear 68 20 59 15 73 73 SSE 6 9 30.21 1023 10 16 N/A
2:55 am 02:55 Clear 68 20 59 15 73 73 S 3 6 30.21 1023 10 16 N/A
3:15 am 03:15 Clear 64 18 59 15 83 83 S 3 6 30.21 1023 10 16 N/A
3:35 am 03:35 Clear 66 19 59 15 78 78 S 5 7 30.18 1022 10 16 N/A
3:55 am 03:55 Clear 64 18 59 15 83 83 S 5 7 30.21 1023 10 16 N/A
4:15 am 04:15 Clear 63 17 59 15 88 88 S 6 9 30.21 1023 10 16 N/A
4:35 am 04:35 Clear 63 17 59 15 88 88 S 7 11 30.21 1023 10 16 N/A
4:55 am 04:55 Clear 63 17 59 15 88 88 S 3 6 30.21 1023 10 16 N/A
5:15 am 05:15 Clear 63 17 59 15 88 88 S 6 9 30.21 1023 10 16 N/A
5:35 am 05:35 Clear 63 17 59 15 88 88 S 6 9 30.21 1023 10 16 N/A
5:55 am 05:55 Sunny 63 17 59 15 88 88 S 5 7 30.21 1023 10 16 N/A
6:15 am 06:15 Sunny 63 17 59 15 88 88 S 5 7 30.21 1023 10 16 N/A
6:35 am 06:35 Sunny 63 17 59 15 88 88 S 6 9 30.21 1023 10 16 N/A
6:55 am 06:55 Sunny 63 17 61 16 94 94 SSW 5 7 30.24 1024 10 16 N/A
7:15 am 07:15 Sunny 64 18 61 16 88 88 S 6 9 30.24 1024 10 16 N/A
7:35 am 07:35 Sunny 66 19 61 16 83 83 S 7 11 30.24 1024 10 16 N/A
7:55 am 07:55 Sunny 68 20 61 16 78 78 S 6 9 30.24 1024 10 16 N/A
8:15 am 08:15 Sunny 68 20 61 16 78 78 S 6 9 30.24 1024 10 16 N/A
8:35 am 08:35 Sunny 70 21 61 16 73 73 SSE 6 9 30.24 1024 10 16 N/A
8:55 am 08:55 Sunny 72 22 63 17 73 73 SSE 5 7 30.24 1024 10 16 N/A
9:15 am 09:15 Sunny 72 22 63 17 73 73 S 3 6 30.24 1024 10 16 N/A
9:35 am 09:35 Sunny 73 23 63 17 69 69 S 3 6 30.24 1024 10 16 N/A
9:55 am 09:55 Sunny 73 23 63 17 69 69 S 3 6 30.24 1024 10 16 N/A
10:15 am 10:15 Sunny 77 25 64 18 65 65 S 5 7 30.24 1024 10 16 N/A
10:35 am 10:35 Sunny 79 26 64 18 61 61 SSW 5 7 30.24 1024 10 16 N/A
10:55 am 10:55 Sunny 79 26 64 18 61 61 S 12 19 30.24 1024 10 16 N/A
11:15 am 11:15 Sunny 81 27 66 19 62 62 S 12 19 30.24 1024 10 16 N/A
11:35 am 11:35 Sunny 81 27 66 19 62 62 SSW 7 11 30.24 1024 10 16 N/A
11:55 am 11:55 Sunny 82 28 66 19 58 58 S 12 19 30.24 1024 10 16 N/A
12:15 pm 12:15 Sunny 82 28 66 19 58 58 S 12 19 30.24 1024 10 16 N/A
12:35 pm 12:35 Sunny 84 29 68 20 58 58 SSW 10 17 30.21 1023 10 16 N/A
12:55 pm 12:55 Sunny 86 30 68 20 55 55 SSW 8 13 30.21 1023 10 16 N/A
1:15 pm 13:15 Sunny 86 30 68 20 55 55 SW 6 9 30.21 1023 10 16 N/A
1:35 pm 13:35 Sunny 86 30 68 20 55 55 S 8 13 30.21 1023 10 16 N/A
1:55 pm 13:55 Sunny 86 30 68 20 55 55 W 9 15 30.21 1023 10 16 N/A
2:15 pm 14:15 Sunny 86 30 68 20 55 55 N N/A 30.21 1023 10 16 N/A
2:35 pm 14:35 Sunny 86 30 68 20 55 55 SSW 9 15 30.21 1023 10 16 N/A
2:55 pm 14:55 Sunny 86 30 68 20 55 55 S 6 9 30.18 1022 10 16 N/A
3:15 pm 15:15 Sunny 86 30 68 20 55 55 SW 6 9 30.18 1022 10 16 N/A
3:35 pm 15:35 Sunny 88 31 68 20 52 52 S 12 19 30.18 1022 10 16 N/A
3:55 pm 15:55 Sunny 88 31 68 20 52 52 SSW 8 13 30.18 1022 10 16 N/A
4:15 pm 16:15 Sunny 90 32 68 20 49 49 S 6 9 30.12 1020 10 16 N/A
4:35 pm 16:35 Sunny 88 31 68 20 52 52 SSW 7 11 30.15 1021 10 16 N/A
4:55 pm 16:55 Sunny 88 31 68 20 52 52 SW 7 11 30.15 1021 10 16 N/A
5:15 pm 17:15 Partly Cloudy 88 31 68 20 52 52 SSW 13 20 30.15 1021 10 16 N/A
5:35 pm 17:35 Partly Cloudy 88 31 68 20 52 52 SSW 14 22 30.15 1021 10 16 N/A
5:55 pm 17:55 Sunny 88 31 68 20 52 52 S 14 22 30.15 1021 10 16 N/A
6:15 pm 18:15 Sunny 88 31 70 21 55 55 S 13 20 30.15 1021 10 16 N/A
6:35 pm 18:35 Partly Cloudy 86 30 70 21 59 59 S 14 22 30.12 1020 10 16 N/A
6:55 pm 18:55 Sunny 86 30 70 21 59 59 S 15 24 30.12 1020 10 16 N/A
7:15 pm 19:15 Sunny 84 29 70 21 62 62 S 10 17 30.12 1020 10 16 N/A
7:35 pm 19:35 Sunny 82 28 70 21 66 66 S 13 20 30.15 1021 10 16 N/A
7:55 pm 19:55 Partly Cloudy 82 28 70 21 66 66 SSW 14 22 30.15 1021 10 16 N/A
8:15 pm 20:15 Mostly Cloudy 82 28 70 21 66 66 S 10 17 30.15 1021 10 16 N/A
8:35 pm 20:35 Partly Cloudy 81 27 70 21 70 70 S 9 15 30.15 1021 10 16 N/A
8:55 pm 20:55 Clear 81 27 72 22 74 74 S 6 9 30.15 1021 10 16 N/A
9:15 pm 21:15 Partly Cloudy 79 26 72 22 79 79 SSW 10 17 30.15 1021 10 16 N/A
9:35 pm 21:35 Clear 79 26 72 22 79 79 SSW 10 17 30.15 1021 10 16 N/A
9:55 pm 21:55 Clear with Light Rain 77 25 72 22 83 83 SSW 12 19 30.15 1021 10 16 N/A
10:15 pm 22:15 Partly Cloudy 77 25 72 22 83 83 SSW 7 11 30.15 1021 10 16 N/A
10:35 pm 22:35 Partly Cloudy 77 25 72 22 83 83 S 3 6 30.15 1021 10 16 N/A
10:55 pm 22:55 Clear 77 25 72 22 83 83 S 6 9 30.15 1021 10 16 N/A
11:15 pm 23:15 Clear 77 25 72 22 83 83 S 9 15 30.15 1021 10 16 N/A
11:35 pm 23:35 Clear 75 24 72 22 89 89 SSW 12 19 30.15 1021 10 16 N/A
11:55 pm 23:55 Clear 75 24 72 22 89 89 SSW 9 15 30.15 1021 10 16 N/A

Powered by AerisWeather